User: anonymous   Login
Location: Unspecified
(0.0000°N, 0.0000°E)
Time: 00:49:13
(UTC+00:00)
Language:

STARLING 1 - Orbit

View from above orbital plane
View from above orbital plane
View from above satellite
View from above satellite

Ground track
Ground track

The orbit is defined by the following mean orbital elements,

1 57388U          26145.60327659 +.00000000 +00000-0 +11365-3 0 00009
2 57388  99.5135 158.6890 0005180   5.0383 355.0889 15.06585745    09
Epoch (UTC): 25 May 2026 14:28:43
Eccentricity: 0.0005180
inclination: 99.5135°
perigee height: 543 km
apogee height: 550 km
right ascension of ascending node: 158.6890°
argument of perigee: 5.0383°
revolutions per day: 15.06585745
mean anomaly at epoch: 355.0889°

The dashed part of the orbit path shows where the satellite is in the earth's shadow,  

DLR